Location: *
(41.7492°S, 135.4150°W)
Time: 14:00:30
(UTC+00:00)

METEOR M2 - Visible Passes

Search period start: 02 July 2022 00:00
Search period end: 12 July 2022 00:00
Orbit: 820 x 826 km, 98.4° (Epoch: 01 July)

Date Brightness Start Highest point End Pass type
(mag) Time Alt. Az. Time Alt. Az. Time Alt. Az.
02 Jul ? 02:30:22 11° ESE 02:31:21 11° E 02:32:48 10° ENE visible
02 Jul ? 04:11:46 76° SSE 04:12:13 90° ESE 04:17:38 10° NNW visible
02 Jul ? 05:53:11 12° WSW 05:53:11 12° WSW 05:54:03 10° W visible
02 Jul ? 13:51:17 10° ENE 13:55:10 21° ESE 13:59:04 10° SSE visible
02 Jul ? 15:29:35 10° N 15:34:53 57° W 15:40:14 10° SSW visible
03 Jul ? 03:51:29 54° ESE 03:52:16 61° E 03:57:35 10° N visible
03 Jul ? 05:32:54 19° WSW 05:32:54 19° WSW 05:35:40 10° WNW visible
03 Jul ? 13:32:46 10° E 13:35:30 14° ESE 13:38:14 10° SSE visible
03 Jul ? 15:09:30 10° NNE 15:14:55 85° WNW 15:20:23 10° SSW visible
04 Jul ? 03:31:12 36° ESE 03:32:15 40° E 03:37:17 10° NNE visible
04 Jul ? 05:12:37 28° WSW 05:12:37 28° WSW 05:16:43 10° WNW visible
04 Jul ? 14:49:40 10° NNE 14:55:00 65° ESE 15:00:23 10° S visible
05 Jul ? 03:10:55 24° ESE 03:12:10 27° E 03:16:41 10° NNE visible
05 Jul ? 04:52:19 40° WSW 04:52:26 40° WSW 04:57:26 10° NW visible
05 Jul ? 14:30:04 10° NE 14:35:09 44° ESE 14:40:17 10° S visible
06 Jul ? 02:50:37 16° ESE 02:52:02 18° E 02:55:37 10° NE visible
06 Jul ? 04:32:02 57° SW 04:32:36 60° WSW 04:37:53 10° NNW visible
06 Jul ? 14:10:44 10° NE 14:15:22 30° ESE 14:20:01 10° S visible
06 Jul ? 15:50:26 10° NNW 15:55:23 37° W 16:00:23 10° SSW visible
07 Jul ? 02:30:19 10° ESE 02:31:50 11° E 02:33:30 10° ENE visible
07 Jul ? 04:11:44 62° SSE 04:12:41 88° WSW 04:18:06 10° NNW visible
07 Jul ? 05:53:08 12° WSW 05:53:08 12° WSW 05:54:24 10° W visible
07 Jul ? 13:51:42 10° ENE 13:55:38 21° ESE 13:59:34 10° SSE visible
07 Jul ? 15:30:05 10° N 15:35:21 55° W 15:40:42 10° SSW visible
08 Jul ? 03:51:25 47° SE 03:52:45 62° E 03:58:04 10° N visible
08 Jul ? 05:32:50 19° WSW 05:32:50 19° WSW 05:36:04 10° WNW visible
08 Jul ? 13:33:09 10° E 13:35:57 14° ESE 13:38:46 10° SSE visible
08 Jul ? 15:09:58 10° NNE 15:15:23 83° WNW 15:20:51 10° SSW visible
09 Jul ? 03:31:07 33° ESE 03:32:43 41° E 03:37:47 10° NNE visible
09 Jul ? 05:12:31 27° WSW 05:12:40 27° WSW 05:17:08 10° WNW visible
09 Jul ? 14:50:08 10° NNE 14:55:28 67° ESE 15:00:52 10° S visible
10 Jul ? 03:10:48 23° ESE 03:12:39 27° E 03:17:12 10° NNE visible
10 Jul ? 04:52:12 38° SW 04:52:54 39° WSW 04:57:52 10° NW visible
10 Jul ? 14:30:31 10° NE 14:35:36 45° ESE 14:40:45 10° S visible
11 Jul ? 02:50:28 15° ESE 02:52:31 18° E 02:56:10 10° NE visible
11 Jul ? 04:31:53 48° SSW 04:33:03 59° WSW 04:38:20 10° NNW visible
11 Jul ? 14:11:10 10° NE 14:15:49 31° ESE 14:20:30 10° S visible
11 Jul ? 15:50:56 10° NNW 15:55:51 36° W 16:00:50 10° SSW visible
